Location: Mentone
(34.5413°N, 85.5351°W)
Time: 15:52:28
(UTC-05:00)

S-56A Canister/Altair - Visible Passes

Search period start: 29 July 2014 00:00
Search period end: 08 August 2014 00:00
Orbit: 633 x 2503 km, 38.9° (Epoch: 26 July)

Date Brightness Start Highest point End Pass type
(mag) Time Alt. Az. Time Alt. Az. Time Alt. Az.
29 Jul 9.2 00:50:47 10° W 01:03:18 37° ENE 01:06:37 10° ENE visible
29 Jul 8.1 03:00:45 22° WNW 03:05:12 65° N 03:10:11 10° E visible
29 Jul 7.6 05:03:49 10° WNW 05:09:00 46° SSW 05:13:15 10° SE visible
29 Jul 10.3 20:07:14 10° S 20:17:22 25° SE 20:25:29 10° E visible
29 Jul 9.0 22:10:21 10° SW 22:22:46 61° SSE 22:29:38 18° ENE visible
30 Jul 8.7 00:17:32 10° W 00:32:47 22° ENE 00:34:42 10° ENE visible
30 Jul 8.2 02:30:17 37° WNW 02:32:59 63° N 02:38:15 10° E visible
30 Jul 7.5 04:31:16 10° WNW 04:37:00 56° SSW 04:41:27 10° SE visible
30 Jul 9.3 21:37:16 10° SW 21:50:08 57° SSE 21:58:58 10° ENE visible
30 Jul 8.8 23:44:15 10° WSW 23:55:31 78° NNW 23:58:48 40° ENE visible
31 Jul 8.4 01:52:12 10° WNW 02:00:41 63° N 02:06:20 10° E visible
31 Jul 7.5 03:58:38 10° WNW 04:04:58 66° SSW 04:09:38 10° SE visible
31 Jul 9.5 21:04:13 10° SW 21:17:25 53° SSE 21:26:46 10° ENE visible
31 Jul 8.9 23:10:55 10° WSW 23:22:58 83° NNW 23:28:59 20° ENE visible
01 Aug 9.0 01:19:05 10° W 01:32:07 26° ENE 01:34:23 10° E visible
01 Aug 7.5 03:29:47 32° WNW 03:32:53 76° SSW 03:37:48 10° ESE visible
01 Aug 9.7 20:31:15 10° SW 20:44:39 49° SSE 20:54:29 10° ENE visible
01 Aug 9.0 22:37:34 10° WSW 22:50:21 87° NNW 22:58:26 12° ENE visible
02 Aug 8.8 00:45:52 10° W 00:55:52 65° N 00:55:52 65° N visible
02 Aug 7.9 02:53:05 10° WNW 03:01:47 63° ESE 03:05:57 10° ESE visible
02 Aug 8.7 04:59:51 10° W 05:03:49 19° SW 05:07:11 10° S visible
02 Aug 9.9 19:58:22 10° SSW 20:11:50 46° SE 20:22:07 10° ENE visible
02 Aug 9.2 22:04:13 10° WSW 22:17:40 88° SSE 22:26:39 10° ENE visible
03 Aug 8.9 00:12:34 10° W 00:23:27 66° N 00:25:05 55° NE visible
03 Aug 10.0 02:20:09 10° WNW 02:33:43 12° ESE 02:34:05 10° ESE visible
03 Aug 8.5 04:31:23 25° SW 04:31:51 25° SW 04:35:49 10° SSE visible
03 Aug 9.3 21:30:55 10° WSW 21:44:55 84° SSE 21:54:31 10° ENE visible
03 Aug 9.1 23:39:11 10° W 23:50:53 68° N 23:54:12 40° ENE visible
04 Aug 9.8 01:47:08 10° WNW 01:51:38 29° WNW 01:51:38 29° WNW visible
04 Aug 9.2 04:03:06 17° SSE 04:03:06 17° SSE 04:04:20 10° SSE visible
04 Aug 9.5 20:57:39 10° WSW 21:12:05 79° SSE 21:22:19 10° ENE visible
04 Aug 9.2 23:05:46 10° W 23:18:15 70° N 23:23:18 29° ENE visible
05 Aug 9.4 01:14:00 10° WNW 01:20:43 43° WNW 01:20:43 43° WNW visible
05 Aug 9.6 20:24:27 10° SW 20:39:11 75° SSE 20:50:03 10° ENE visible
05 Aug 9.3 22:32:19 10° W 22:45:32 73° N 22:52:22 20° ENE visible
06 Aug 9.0 00:40:47 10° WNW 00:49:47 60° NW 00:49:47 60° NW visible
06 Aug 9.8 19:51:20 10° SW 20:06:14 70° SSE 20:17:42 10° ENE visible
06 Aug 9.5 21:58:52 10° W 22:12:44 76° NNW 22:21:25 14° ENE visible
07 Aug 8.9 00:07:29 10° WNW 00:18:50 73° N 00:18:50 73° N visible
07 Aug 10.6 02:15:00 10° WNW 02:16:15 14° WNW 02:16:15 14° WNW visible
07 Aug 9.6 21:25:26 10° W 21:39:51 78° NNW 21:49:58 10° ENE visible
07 Aug 9.0 23:34:07 10° WNW 23:46:21 72° N 23:47:52 62° ENE visible
